Abilene Dyess, TX

8:13 PM CDT on March 22, 2017 (GMT -0500)
Dyess Air Force Base

Weather History for KDYS - November, 2013

Change the Weather History Date:

Friday, November 22, 2013

  Actual Average Record
Temperature  
Mean Temperature 30 °F -  
Max Temperature 33 °F 62 °F 81 °F (2010)
Min Temperature 26 °F 42 °F 23 °F (2015)
Degree Days  
Heating Degree Days 36    
Moisture  
Dew Point 26 °F    
Average Humidity 87    
Maximum Humidity 94    
Minimum Humidity 68    
Precipitation  
Precipitation 0.02 in - - ()
Sea Level Pressure  
Sea Level Pressure 30.45 in    
Wind  
Wind Speed 17 mph (North)    
Max Wind Speed 25 mph    
Max Gust Speed 34 mph    
Visibility 8 miles    
Events Rain , Snow    
Averages and records for this station are not official NWS values.
T = Trace of Precipitation, MM = Missing Value Source: NWS Daily Summary

Daily Weather History Graph

Daily Weather History Graph

Search for Another Location

Airport or City:

Trip Planner

Search our weather history database for the weather conditions in past years. The results will help you decide how hot, cold, wet, or windy it might be!

Date:

Astronomy

Nov. 22, 2013 Rise Set
Actual Time 7:15 AM CST 5:35 PM CST
Civil Twilight 6:49 AM CST 6:02 PM CST
Nautical Twilight 6:19 AM CST 6:31 PM CST
Astronomical Twilight 5:49 AM CST 7:01 PM CST
Moon 10:04 PM CST (11/22) 11:03 AM CST (11/22)
Length of Visible Light 11h 13m
Length of Day
10h 20m
Waning Gibbous, 78% of the Moon is Illuminated
Nov 22
Waning Gibbous
Nov 25
Last Quarter
Dec 2
New
Dec 9
First Quarter
Dec 17
Full

Hourly Weather History & Observations

Time (CST) Temp. Windchill Dew Point Humidity Pressure Visibility Wind Dir Wind Speed Gust Speed Precip Events Conditions
12:23 AM 32.0 °F 19.2 °F 30.2 °F 93% 30.35 in 10.0 mi North 23.0 mph 29.9 mph N/A   Overcast
12:35 AM 32.0 °F 22.1 °F 28.4 °F 87% 30.34 in 10.0 mi NNE 13.8 mph 26.5 mph N/A Rain Light Rain
12:44 AM 32.0 °F 20.1 °F 28.4 °F 87% 30.34 in 10.0 mi North 19.6 mph 26.5 mph N/A   Mostly Cloudy
12:46 AM 32.0 °F 20.1 °F 28.4 °F 87% 30.34 in 10.0 mi North 19.6 mph 26.5 mph N/A Rain Light Rain
12:58 AM 33.1 °F 20.9 °F 28.6 °F 84% 30.31 in 10.0 mi North 21.9 mph 29.9 mph 0.00 in Rain Light Rain
1:04 AM 32.0 °F 19.5 °F 28.4 °F 87% 30.34 in 10.0 mi North 21.9 mph 28.8 mph N/A   Overcast
1:12 AM 32.0 °F 19.8 °F 28.4 °F 87% 30.35 in 10.0 mi NNE 20.7 mph 28.8 mph N/A Rain Light Rain
1:17 AM 32.0 °F 19.5 °F 28.4 °F 87% 30.35 in 10.0 mi NNE 21.9 mph 27.6 mph N/A Rain Light Rain
1:37 AM 32.0 °F 19.5 °F 28.4 °F 87% 30.35 in 10.0 mi North 21.9 mph 27.6 mph N/A   Mostly Cloudy
1:58 AM 32.5 °F 20.8 °F 27.1 °F 80% 30.32 in 10.0 mi North 19.6 mph 25.3 mph 0.01 in   Mostly Cloudy
2:58 AM 32.2 °F 19.4 °F 25.3 °F 76% 30.32 in 10.0 mi North 23.0 mph 28.8 mph N/A   Overcast
3:58 AM 31.5 °F 19.1 °F 23.4 °F 72% 30.33 in 10.0 mi NNE 20.7 mph 34.5 mph N/A   Overcast
4:58 AM 31.1 °F 18.9 °F 22.1 °F 69% 30.35 in 10.0 mi North 19.6 mph 28.8 mph N/A   Overcast
5:58 AM 30.6 °F 17.0 °F 21.2 °F 68% 30.40 in 10.0 mi North 24.2 mph 28.8 mph N/A   Overcast
6:48 AM 30.2 °F 16.5 °F 21.2 °F 69% 30.41 in 10.0 mi NNE 24.2 mph 33.4 mph N/A   Overcast
6:58 AM 29.5 °F 16.5 °F 20.8 °F 70% 30.46 in 10.0 mi North 20.7 mph 26.5 mph N/A   Overcast
7:18 AM 28.4 °F 15.4 °F 21.2 °F 74% 30.43 in 10.0 mi North 19.6 mph 28.8 mph N/A   Overcast
7:38 AM 28.4 °F 13.8 °F 21.2 °F 74% 30.45 in 10.0 mi North 25.3 mph 31.1 mph N/A Rain Light Freezing Rain
7:58 AM 28.4 °F 15.1 °F 21.6 °F 76% 30.49 in 10.0 mi North 20.7 mph 31.1 mph 0.00 in Rain Light Freezing Rain
8:14 AM 28.4 °F 13.8 °F 21.2 °F 74% 30.47 in 10.0 mi North 25.3 mph 32.2 mph N/A Rain Light Freezing Rain
8:58 AM 27.5 °F 12.6 °F 23.0 °F 83% 30.51 in 4.0 mi North 25.3 mph 29.9 mph 0.00 in Rain Light Freezing Rain
9:19 AM 26.6 °F 12.0 °F 23.0 °F 86% 30.47 in 0.8 mi North 23.0 mph - N/A Rain Light Freezing Rain
9:30 AM 26.6 °F 13.1 °F 23.0 °F 86% 30.48 in 2.0 mi North 19.6 mph 24.2 mph N/A Rain Light Freezing Rain
9:40 AM 26.6 °F 14.7 °F 23.0 °F 86% 30.49 in 1.5 mi North 15.0 mph 25.3 mph N/A Rain Light Freezing Rain
9:58 AM 26.4 °F 13.6 °F 23.7 °F 90% 30.53 in 0.8 mi North 17.3 mph 25.3 mph 0.00 in   Ice Pellets
10:58 AM 27.9 °F 16.3 °F 24.4 °F 87% 30.53 in 7.0 mi North 15.0 mph 24.2 mph 0.01 in Snow Light Snow
11:58 AM 28.2 °F 15.5 °F 24.8 °F 87% 30.54 in 7.0 mi North 18.4 mph - 0.00 in Snow Light Snow
12:58 PM 28.6 °F 16.0 °F 24.6 °F 85% 30.50 in 10.0 mi North 18.4 mph - 0.00 in   Mostly Cloudy
1:14 PM 28.4 °F 14.7 °F 24.8 °F 86% 30.46 in 9.0 mi North 21.9 mph - N/A   Mostly Cloudy
1:22 PM 28.4 °F 15.8 °F 24.8 °F 86% 30.45 in 8.0 mi North 18.4 mph - N/A   Mostly Cloudy
1:23 PM 28.4 °F 15.8 °F 24.8 °F 86% 30.44 in 8.0 mi North 18.4 mph - N/A Rain Light Freezing Rain
1:58 PM 28.8 °F 17.5 °F 25.9 °F 89% 30.51 in 9.0 mi North 15.0 mph - 0.00 in Rain Light Freezing Rain
2:03 PM 28.4 °F 17.5 °F 26.6 °F 93% 30.44 in 10.0 mi North 13.8 mph - N/A Rain Light Freezing Rain
2:28 PM 28.4 °F 17.5 °F 26.6 °F 93% 30.43 in 10.0 mi North 13.8 mph - N/A   Mostly Cloudy
2:58 PM 28.9 °F 18.2 °F 26.4 °F 90% 30.49 in 10.0 mi North 13.8 mph - 0.00 in   Overcast
3:40 PM 28.4 °F 18.5 °F 26.6 °F 93% 30.45 in 9.0 mi North 11.5 mph - N/A   Light Freezing Drizzle
3:41 PM 28.4 °F 17.5 °F 26.6 °F 93% 30.45 in 9.0 mi North 13.8 mph - N/A   Mostly Cloudy
3:51 PM 30.2 °F 20.8 °F 26.6 °F 86% 30.45 in 8.0 mi North 11.5 mph - N/A   Mostly Cloudy
3:58 PM 29.3 °F 19.6 °F 27.0 °F 91% 30.52 in 7.0 mi North 11.5 mph - 0.00 in   Mostly Cloudy
4:03 PM 28.4 °F 19.1 °F 26.6 °F 93% 30.45 in 8.0 mi North 10.4 mph - N/A   Mostly Cloudy
4:14 PM 30.2 °F 21.9 °F 26.6 °F 86% 30.45 in 7.0 mi North 9.2 mph - N/A   Light Freezing Drizzle
4:39 PM 30.2 °F 21.9 °F 26.6 °F 86% 30.46 in 8.0 mi NNE 9.2 mph - N/A   Light Freezing Drizzle
4:54 PM 30.2 °F 21.3 °F 28.4 °F 93% 30.46 in 8.0 mi North 10.4 mph - N/A   Light Freezing Drizzle
4:58 PM 29.7 °F 21.3 °F 27.7 °F 92% 30.52 in 8.0 mi North 9.2 mph - 0.00 in   Light Freezing Drizzle
5:38 PM 30.2 °F 21.3 °F 28.4 °F 93% 30.45 in 8.0 mi North 10.4 mph - N/A Rain Light Freezing Rain
5:43 PM 30.2 °F 21.9 °F 26.6 °F 86% 30.45 in 10.0 mi NNE 9.2 mph - N/A Rain Light Freezing Rain
5:45 PM 30.2 °F 21.3 °F 26.6 °F 86% 30.45 in 10.0 mi NNE 10.4 mph - N/A   Mostly Cloudy
5:58 PM 29.7 °F 20.7 °F 27.7 °F 92% 30.52 in 10.0 mi NNE 10.4 mph - 0.00 in   Mostly Cloudy
6:06 PM 30.2 °F 21.3 °F 28.4 °F 93% 30.46 in 8.0 mi North 10.4 mph - N/A   Light Freezing Drizzle
6:57 PM 30.2 °F 21.3 °F 26.6 °F 86% 30.46 in 10.0 mi North 10.4 mph - N/A   Overcast
6:58 PM 29.5 °F 20.4 °F 27.5 °F 92% 30.53 in 10.0 mi NNE 10.4 mph - 0.00 in   Overcast
7:24 PM 30.2 °F 22.6 °F 28.4 °F 93% 30.45 in 10.0 mi NNE 8.1 mph - N/A   Light Freezing Drizzle
7:56 PM 30.2 °F 21.3 °F 28.4 °F 93% 30.46 in 10.0 mi NNE 10.4 mph - N/A   Mostly Cloudy
7:58 PM 30.2 °F 21.9 °F 28.4 °F 93% 30.53 in 10.0 mi NNE 9.2 mph - 0.00 in   Overcast
8:23 PM 30.2 °F 21.3 °F 28.4 °F 93% 30.47 in 8.0 mi NNE 10.4 mph - N/A   Overcast
8:24 PM 30.2 °F 21.3 °F 28.4 °F 93% 30.47 in 7.0 mi NNE 10.4 mph - N/A   Light Freezing Drizzle
8:44 PM 30.2 °F 21.9 °F 28.4 °F 93% 30.46 in 6.0 mi NNE 9.2 mph - N/A   Light Freezing Drizzle
8:54 PM 30.2 °F 21.3 °F 28.4 °F 93% 30.47 in 7.0 mi NNE 10.4 mph - N/A   Light Freezing Drizzle
8:58 PM 29.7 °F 20.7 °F 27.9 °F 93% 30.54 in 7.0 mi NNE 10.4 mph - 0.00 in   Light Freezing Drizzle
9:08 PM 30.2 °F 23.4 °F 28.4 °F 93% 30.47 in 8.0 mi NNE 6.9 mph - N/A   Light Freezing Drizzle
9:13 PM 30.2 °F 21.9 °F 28.4 °F 93% 30.48 in 7.0 mi North 9.2 mph - N/A   Light Freezing Drizzle
9:58 PM 30.0 °F 23.2 °F 28.2 °F 93% 30.56 in 6.0 mi NNE 6.9 mph - 0.00 in   Light Freezing Drizzle
10:23 PM 30.2 °F 24.3 °F 28.4 °F 93% 30.48 in 5.0 mi NNE 5.8 mph - N/A Rain Light Freezing Rain
10:33 PM 30.2 °F 22.6 °F 28.4 °F 93% 30.48 in 5.0 mi North 8.1 mph - N/A Rain Light Freezing Rain
10:58 PM 30.0 °F 22.4 °F 28.6 °F 94% 30.56 in 5.0 mi NNE 8.1 mph - 0.00 in Rain Light Freezing Rain
11:08 PM 30.2 °F 23.4 °F 28.4 °F 93% 30.48 in 5.0 mi NNE 6.9 mph - N/A Rain Light Freezing Rain
11:53 PM 30.2 °F 23.4 °F 28.4 °F 93% 30.50 in 6.0 mi North 6.9 mph - N/A Rain Light Freezing Rain
11:58 PM 29.3 °F 22.3 °F 27.9 °F 94% 30.56 in 6.0 mi Variable 6.9 mph - 0.00 in Rain Light Freezing Rain